Hourly Data Report for October 27, 2014

All times are specified in Local Standard Time (LST). Add 1 hour to adjust for Daylight Saving Time where and when it is observed.

PANGNIRTUNG
NUNAVUT

66°08'36.300" N
65°42'40.500" W
22.60 m
2403049
71826
WXP

Download Data

Hourly Data (October 2014)
Hourly Data Report for October 27, 2014
Temp Definition
°C
Dew Point Temp Definition
°C
Rel Hum Definition
%
Wind Dir Definition
10's deg

Wind Spd Definition
km/h
Visibility Definition
km
Stn Press Definition
kPa
Hmdx Definition


Wind Chill Definition


Weather Definition


TIME
00:00 -9.7 -16.4 58 14 5   101.77   -13 LegendNANA
01:00 -10.1 -16.1 61 11 8   101.78   -15 LegendNANA
02:00 -9.4 -15.7 60 11 10   101.78   -15 LegendNANA
03:00 -9.0 -13.9 67 11 14   101.79   -15 LegendNANA
04:00 -8.9 -13.1 71 9 8   101.80   -13 LegendNANA
05:00 -8.1 -13.6 64 8 11   101.82   -13 LegendNANA
06:00 -7.8 -13.6 63 8 11   101.80   -13 LegendNANA
07:00 -7.7 -13.0 66 12 7   101.82   -11 LegendNANA
08:00 -7.5 -12.8 66 8 6   101.84   -11 LegendNANA
09:00 -6.7 -12.1 65 10 7   101.82   -10 LegendNANA
10:00 -6.4 -11.3 68 10 8   101.81   -10 LegendNANA
11:00 -6.0 -11.0 68 3 14   101.78   -12 LegendNANA
12:00 -5.6 -10.4 68 4 10   101.76   -10 LegendNANA
13:00 -5.7 -9.9 72 9 9   101.75   -10 LegendNANA
14:00 -5.3 -9.9 70 4 14   101.72   -11 LegendNANA
15:00 -5.0 -9.5 71 4 9   101.73   -9 LegendNANA
16:00 -4.9 -9.5 70 1 12   101.69   -10 LegendNANA
17:00 -4.7 -8.4 75 10 8   101.64   -8 LegendNANA
18:00 -5.0 -9.1 73 13 24   101.63   -12 LegendNANA
19:00 -5.0 -9.1 73 13 20   101.65   -12 LegendNANA
20:00 -4.8 -8.5 75 11 22   101.63   -12 LegendNANA
21:00 -4.6 -8.6 73 11 27   101.55   -12 LegendNANA
22:00 -4.4 -8.5 73 12 24   101.52   -11 LegendNANA
23:00 -4.2 -8.3 73 11 25   101.47   -11 LegendNANA

Notes on Data Quality.

Legend

  • E = Estimated
  • M = Missing
  • NA = Not Available
  • ‡ = Partner data that is not subject to review by the National Climate Archives
Date modified: